shoulder
new_line
new_line
first
second
third
Al di la della Luna; Beyond the Moon; Astrophotography; Astrofotografia; Danilo Pivato
 
 
         
         
2006

Orbital Elements

Epoch 2006 Sept. 22.0 TT = JDT 2454000.5
T 2006 Sept. 28.72838 TT                                                                     MPC
q   0.7830077                          (2000.0)                 P                        Q
z  -0.0002383                 Peri.   62.59398       -0.22208969        +0.84760246
 +/-0.0000013             Node   148.72659       +0.15020016        -0.45862196
e   1.0001866                Incl.  111.82332       +0.96338781       +0.26690068                       
 
         
         
2006.10.25
2006.10.26
2006.10.27
2006.10.28
2006.10.28 mosaic & M13
         
2006.10.29
Video c2006 m4 swan 2006.10.29 [101Mb]
2006.10.30
Video c2006 m4 swan 2006.10.19 [39,1Mb
2006.10.31
         
2006.11.02
2006.11.03
2006.11.04
2006.11.05
2006.11.06
         
2006.11.07
2006.11.08
2006.11.09
2006.11.10
2006.11.12
         
2006.11.12 300mm d70s
2006.11.13
2006.11.15
2006.11.19
2006.11.22
         
2006.11.26
         
         
         
         

 

       
 
Since: 01/01/2004
 
       
 
Since: 01/11/2010